Regional Weather Roundup
Issued by NWS

Home | Current Version | Previous Version | Graphics & Text | Print | Product List | Glossary On
Versions: 1 2 3 4 5 6 7 8 9 10 11 12 13 14 15 16 17 18 19 20 21 22 23 24 25 26 27 28 29 30 31 32 33 34 35 36 37 38 39 40 41 42 43 44 45 46 47 48 49 50
000
ASUS45 KBOI 300610
RWRID
WEATHER ROUNDUP FOR IDAHO
NATIONAL WEATHER SERVICE BOISE ID
1200 AM MDT WED JUL 30 2014

NOTE: "FAIR" INDICATES FEW OR NO CLOUDS BELOW 12000 FEET
WITH NO SIGNIFICANT WEATHER AND/OR OBSTRUCTIONS TO VISIBILITY

IDZ012-014-300700-
SOUTHWEST IDAHO


CITY           SKY/WX    TMP DP  RH WIND       PRES   REMARKS
BOISE          MOCLDY    78  54  43 SE17      30.13R
CALDWELL       MOCLDY    81  48  32 S12       30.13R
MOUNTAIN HOME  CLOUDY    74  55  51 SE23      30.15R
$$

IDZ016-017-300700-
SOUTHCENTRAL IDAHO


CITY           SKY/WX    TMP DP  RH WIND       PRES   REMARKS
BURLEY         CLOUDY    66  54  65 CALM      30.20F
JEROME         LGT RAIN  70  52  52 E15G26    30.17F
TWIN FALLS     LGT RAIN  69  55  60 S6        30.23S
$$

IDZ019>023-300700-
SOUTHEAST IDAHO


CITY           SKY/WX    TMP DP  RH WIND       PRES   REMARKS
IDAHO FALLS    CLOUDY    61  56  83 N5        30.23F
POCATELLO      CLEAR     63  56  78 N10       30.21F
REXBURG        CLOUDY    65  50  58 E7        30.23F
$$

IDZ006-010-011-018-031-032-300700-
CENTRAL IDAHO MOUNTAINS


CITY           SKY/WX    TMP DP  RH WIND       PRES   REMARKS
MCCALL         PTCLDY    73  33  23 N5        30.21R
HAILEY         CLOUDY    61  57  88 W10       30.31F
STANLEY          N/A     64  44  48 SE8       30.36R
SALMON         CLOUDY    64  52  63 W3        30.18S
CHALLIS        CLOUDY    72  47  40 S6        30.25S
$$

IDZ002-004-006-007-026-300700-
NORTHERN IDAHO


CITY           SKY/WX    TMP DP  RH WIND       PRES   REMARKS
LEWISTON       PTCLDY    87  32  14 SW9       29.94R
LOWELL           N/A     69  58  67 N5        30.01R
COEUR D`ALENE  CLEAR     72  55  56 SE6       30.00S
MULLAN PASS    MOCLDY    72  36  26 CALM      30.30S
$$



USA.gov is the U.S. government's official web portal to all federal, state and local government web resources and services.